Date String (YYYY-MM-DD hh:mm:ss) UTC,Instrument flags,absolute air pressure of the measurement (hPa),sample flow rate (lpm),inlet stack bypass flow (lpm),air temperature of the measurement (°C),ambient temperature measured by the external sensor (°C),aerosol sample conditioner tube jacket temperature (°C),OPC LED temperature (°C),internal box temperature (°C),relative humidity of the measurement (%),span deviation,mass concentration of particles derived from Lorenz-Mie calculation of OPC scattering (μg/m³),mass concentration of particles derived from Lorenz-Mie calculation of OPC scattering (μg/m³),mass concentration of particles derived from Lorenz-Mie calculation of OPC scattering (μg/m³)
DateTimeUTC,F1_M11,P_M11,Q1_M11,Q2_M11,T1_M11,T2_M11,T3_M11,T4_M11,T5_M11,U1_M11,ZSPAN_M11,X0_M11,X2_M11,X1_M11
2023-07-28 10:00:00,SystemResetWarning,0834.6,4.99,000.00,029.7,028.3,000.0,038.0,031.3,26.2,0000.0,0009.50,0003.77,0003.15
2023-07-28 10:01:00,SystemResetWarning,0834.2,5.00,000.00,029.6,026.5,000.0,037.9,031.1,26.1,0000.0,0009.49,0003.76,0003.15
2023-07-28 10:02:00,SystemResetWarning,0834.2,5.00,000.00,029.5,025.3,000.0,037.8,030.8,26.1,0000.0,0009.94,0003.76,0003.15
2023-07-28 10:03:00,SystemResetWarning,0834.2,5.01,000.00,029.4,025.3,000.0,037.8,030.5,26.2,0000.0,0010.04,0003.75,0003.15
2023-07-28 10:04:00,SystemResetWarning,0834.2,5.01,000.00,029.3,025.6,000.0,037.8,030.5,26.3,0000.0,0009.45,0003.76,0003.14
2023-07-28 10:05:00,SystemResetWarning,0834.1,4.99,000.00,029.3,026.0,000.0,037.8,030.6,26.2,0000.0,0009.35,0003.76,0003.14
2023-07-28 10:06:00,SystemResetWarning,0834.1,5.00,000.00,029.3,026.4,000.0,037.8,030.6,25.8,0000.0,0009.56,0003.71,0003.13
2023-07-28 10:07:00,SystemResetWarning,0834.1,5.01,000.00,029.3,026.7,000.0,037.8,030.7,26.0,0000.0,0009.37,0003.65,0003.12
2023-07-28 10:08:00,SystemResetWarning,0834.1,5.01,000.00,029.3,027.0,000.0,037.8,030.8,26.1,0000.0,0008.57,0003.57,0003.10
2023-07-28 10:09:00,SystemResetWarning,0834.0,5.00,000.00,029.3,027.3,000.0,037.8,030.8,25.8,0000.0,0007.97,0003.53,0003.09
2023-07-28 10:10:00,SystemResetWarning,0834.0,5.00,000.00,029.3,027.5,000.0,037.8,030.9,25.6,0000.0,0007.88,0003.49,0003.08
2023-07-28 10:11:00,SystemResetWarning,0833.9,4.99,000.00,029.3,027.7,000.0,037.8,030.9,25.7,0000.0,0007.82,0003.48,0003.07
2023-07-28 10:12:00,SystemResetWarning,0833.9,5.01,000.00,029.3,027.8,000.0,037.8,030.9,25.3,0000.0,0007.81,0003.47,0003.07
2023-07-28 10:13:00,SystemResetWarning,0834.0,5.01,000.00,029.4,027.9,000.0,037.8,031.0,25.3,0000.0,0007.56,0003.44,0003.05
2023-07-28 10:14:00,SystemResetWarning,0833.9,5.00,000.00,029.4,028.1,000.0,037.9,031.0,25.2,0000.0,0008.21,0003.44,0003.03
2023-07-28 10:15:00,SystemResetWarning,0833.9,4.99,000.00,029.4,028.2,000.0,037.9,031.1,25.0,0000.0,0008.22,0003.42,0003.00
2023-07-28 10:16:00,SystemResetWarning,0833.9,5.00,000.00,029.5,028.2,000.0,037.9,031.1,24.8,0000.0,0008.16,0003.39,0002.97
2023-07-28 10:17:00,SystemResetWarning,0833.9,5.00,000.00,029.5,028.3,000.0,037.9,031.1,24.7,0000.0,0007.73,0003.39,0002.96
2023-07-28 10:18:00,SystemResetWarning,0833.9,5.00,000.00,029.5,028.4,000.0,037.9,031.2,24.6,0000.0,0007.12,0003.38,0002.95
2023-07-28 10:19:00,SystemResetWarning,0833.9,5.00,000.00,029.5,028.4,000.0,037.9,031.2,24.4,0000.0,0006.97,0003.36,0002.94
2023-07-28 10:20:00,SystemResetWarning,0833.9,5.00,000.00,029.6,028.5,000.0,038.0,031.2,24.4,0000.0,0006.93,0003.37,0002.94
2023-07-28 10:21:00,SystemResetWarning,0833.9,5.00,000.00,029.6,028.5,000.0,038.0,031.3,24.3,0000.0,0007.14,0003.39,0002.95
2023-07-28 10:22:00,SystemResetWarning,0833.9,5.00,000.00,029.6,028.2,000.0,038.0,031.3,24.4,0000.0,0007.28,0003.40,0002.95
2023-07-28 10:23:00,SystemResetWarning,0833.9,5.00,000.00,029.6,026.3,000.0,037.9,031.1,24.5,0000.0,0007.24,0003.39,0002.93
2023-07-28 10:24:00,SystemResetWarning,0833.9,5.00,000.00,029.5,025.4,000.0,037.8,030.8,24.6,0000.0,0006.74,0003.39,0002.93
2023-07-28 10:25:00,SystemResetWarning,0833.8,5.01,000.00,029.4,025.5,000.0,037.8,030.6,24.9,0000.0,0005.51,0003.37,0002.93
2023-07-28 10:26:00,SystemResetWarning,0833.9,5.01,000.00,029.3,025.8,000.0,037.8,030.6,25.1,0000.0,0005.39,0003.34,0002.92
2023-07-28 10:27:00,SystemResetWarning,0833.8,4.99,000.00,029.3,026.2,000.0,037.8,030.6,25.3,0000.0,0005.33,0003.33,0002.90
2023-07-28 10:28:00,SystemResetWarning,0833.9,5.00,000.00,029.3,026.6,000.0,037.8,030.7,25.3,0000.0,0005.36,0003.32,0002.88
2023-07-28 10:29:00,SystemResetWarning,0834.0,5.00,000.00,029.3,026.9,000.0,037.8,030.8,25.4,0000.0,0005.40,0003.33,0002.87
2023-07-28 10:30:00,SystemResetWarning,0834.0,5.01,000.00,029.3,027.2,000.0,037.8,030.8,25.4,0000.0,0005.38,0003.33,0002.87
2023-07-28 10:31:00,SystemResetWarning,0834.1,5.00,000.00,029.3,027.4,000.0,037.8,030.9,25.5,0000.0,0005.28,0003.31,0002.85
2023-07-28 10:32:00,SystemResetWarning,0834.1,4.99,000.00,029.3,027.6,000.0,037.8,030.9,26.5,0000.0,0005.17,0003.29,0002.84
2023-07-28 10:33:00,SystemResetWarning,0834.1,4.99,000.00,029.4,027.8,000.0,037.8,030.9,26.6,0000.0,0005.25,0003.28,0002.84
2023-07-28 10:34:00,SystemResetWarning,0834.1,5.00,000.00,029.4,027.9,000.0,037.8,031.0,26.0,0000.0,0005.69,0003.29,0002.85
2023-07-28 10:35:00,SystemResetWarning,0834.2,5.00,000.00,029.4,028.0,000.0,037.8,031.0,25.1,0000.0,0005.80,0003.31,0002.85
2023-07-28 10:36:00,SystemResetWarning,0834.2,5.00,000.00,029.4,028.1,000.0,037.9,031.0,25.1,0000.0,0005.76,0003.33,0002.86
2023-07-28 10:37:00,SystemResetWarning,0834.4,4.99,000.00,029.5,028.1,000.0,037.9,031.1,26.7,0000.0,0005.76,0003.35,0002.88
2023-07-28 10:38:00,SystemResetWarning,0834.3,5.01,000.00,029.5,028.2,000.0,037.9,031.1,27.1,0000.0,0005.93,0003.38,0002.88
2023-07-28 10:39:00,SystemResetWarning,0834.3,5.00,000.00,029.5,028.3,000.0,037.9,031.1,27.0,0000.0,0005.94,0003.39,0002.89
2023-07-28 10:40:00,SystemResetWarning,0834.3,5.00,000.00,029.5,028.3,000.0,037.9,031.1,27.2,0000.0,0005.96,0003.40,0002.89
2023-07-28 10:41:00,SystemResetWarning,0834.5,5.00,000.00,029.5,028.3,000.0,037.9,031.1,27.9,0000.0,0006.07,0003.43,0002.91
2023-07-28 10:42:00,SystemResetWarning,0834.6,5.00,000.00,029.6,028.3,000.0,038.0,031.2,27.7,0000.0,0006.20,0003.46,0002.92
2023-07-28 10:43:00,SystemResetWarning,0834.8,5.00,000.00,029.6,028.4,000.0,038.0,031.2,28.0,0000.0,0006.32,0003.48,0002.93
2023-07-28 10:44:00,SystemResetWarning,0834.9,5.00,000.00,029.6,028.4,000.0,038.0,031.2,28.2,0000.0,0006.20,0003.49,0002.93
2023-07-28 10:45:00,SystemResetWarning,0834.8,5.00,000.00,029.6,028.4,000.0,038.0,031.2,28.6,0000.0,0005.76,0003.50,0002.94
2023-07-28 10:46:00,SystemResetWarning,0835.3,5.00,000.00,029.7,028.4,000.0,038.0,031.2,27.9,0000.0,0005.81,0003.50,0002.95
2023-07-28 10:47:00,SystemResetWarning,0835.0,5.00,000.00,029.7,028.4,000.0,038.1,031.3,28.1,0000.0,0005.86,0003.49,0002.96
2023-07-28 10:48:00,SystemResetWarning,0835.0,5.00,000.00,029.7,028.4,000.0,038.1,031.3,28.3,0000.0,0005.76,0003.48,0002.96
2023-07-28 10:49:00,SystemResetWarning,0835.1,5.00,000.00,029.7,028.5,000.0,038.1,031.3,28.3,0000.0,0005.85,0003.48,0002.98
2023-07-28 10:50:00,SystemResetWarning,0835.0,5.00,000.00,029.7,028.5,000.0,038.1,031.3,28.6,0000.0,0005.89,0003.48,0002.99
2023-07-28 10:51:00,SystemResetWarning,0835.0,4.99,000.00,029.7,027.8,000.0,038.1,031.3,26.6,0000.0,0006.14,0003.53,0003.01
2023-07-28 10:52:00,SystemResetWarning,0834.9,5.00,000.00,029.7,025.9,000.0,038.0,031.1,24.7,0000.0,0006.59,0003.57,0003.02
2023-07-28 10:53:00,SystemResetWarning,0834.6,5.01,000.00,029.6,025.3,000.0,037.9,030.8,24.4,0000.0,0006.87,0003.59,0003.02
2023-07-28 10:54:00,SystemResetWarning,0834.7,5.01,000.00,029.5,025.4,000.0,037.9,030.6,24.4,0000.0,0006.73,0003.58,0003.02
2023-07-28 10:55:00,SystemResetWarning,0834.7,4.99,000.00,029.4,025.8,000.0,037.9,030.6,24.6,0000.0,0007.71,0003.61,0003.03
2023-07-28 10:56:00,SystemResetWarning,0834.9,5.00,000.00,029.3,026.2,000.0,037.9,030.7,25.0,0000.0,0008.07,0003.61,0003.01
2023-07-28 10:57:00,SystemResetWarning,0834.7,5.00,000.00,029.3,026.6,000.0,037.9,030.7,25.0,0000.0,0008.05,0003.62,0002.99
2023-07-28 10:58:00,SystemResetWarning,0834.6,4.99,000.00,029.3,026.9,000.0,037.9,030.8,25.0,0000.0,0008.01,0003.62,0002.97
2023-07-28 10:59:00,SystemResetWarning,0834.6,5.00,000.00,029.3,027.2,000.0,037.9,030.9,24.8,0000.0,0008.05,0003.62,0002.96
